[[{"header":{"parameterUnit":"m.s-1","parameterCategory":2,"la1":30.2991,"la2":30.254,"lo1":-89.0895,"lo2":-89.0444,"dy":0.0017,"dx":0.0017,"nx":28,"ny":28,"refTime":"2024-08-30T21:00:00:Z","depth":"0","parameterNumber":2,"parameterNumberName":"U-component_of_CURRENTS"},"data":[0,0,0,0,0,0,0,0,0,0,0,0,0,0,0,0,0,0,0,0,0,0,0,0,0,0,0,0,0,0,0,0,0,0,0,0,0,0,0,0,0,0,0,0,0,0,0,0,0,0,0,0,0,0,0,0,0,0,0.2335,0.2336,0,0.2341,0.2341,0.2341,0.2334,0.2334,0.2334,0.2334,0.2292,0.2291,0.229,0,0,0,0,0,0,0,0,0,0,0,0,0,0.2309,0.231,0.2335,0.2336,0.2336,0.2341,0.2341,0.2341,0.2334,0.2334,0.2334,0.2334,0.2292,0.2291,0.229,0,0,0,0,0,0,0,0,0,0,0,0,0,0.2316,0.231,0.2335,0.2335,0.2335,0.2341,0.2341,0.2341,0.2334,0.2334,0.2334,0.2334,0.2293,0.2291,0.2289,0.2281,0,0,0.2285,0.2284,0,0,0,0,0,0,0,0,0.2316,0.2317,0.2335,0.2335,0.2335,0.2339,0.2317,0.2319,0.2334,0.2332,0.2334,0.2334,0.2305,0.2302,0.2301,0.2279,0.2277,0.2284,0.2283,0.2283,0.2282,0,0,0,0,0,0,0,0.2315,0.2317,0.2335,0.2335,0.2335,0.2331,0.2332,0.2317,0.2316,0.2332,0.2332,0.2336,0.2304,0.2302,0.23,0.2277,0.2284,0.2283,0.2282,0.2281,0.2293,0.2294,0,0,0,0,0,0,0.232,0.2316,0.2335,0.2336,0.2328,0.2332,0.2333,0.2336,0.2317,0.2315,0.2336,0.2336,0.2305,0.2301,0.2298,0.2317,0.2283,0.2281,0.228,0.2292,0.2293,0.2295,0,0,0,0,0,0,0.2319,0.2322,0.2335,0.2328,0.233,0.2333,0.2336,0.2336,0.2341,0.2322,0.2318,0.2342,0.2305,0.23,0.2297,0.2314,0.228,0.2279,0.229,0.2292,0.2294,0.2336,0,0,0,0,0,0,0.2319,0.2321,0.2323,0.2328,0.233,0.2348,0.2336,0.2336,0.2344,0.2344,0.2325,0.2321,0.2304,0.23,0.2296,0.2311,0.2278,0.2289,0.2291,0.2293,0.2333,0.2339,0.2344,0,0,0,0,0,0.2318,0.2321,0.2323,0.2325,0.2333,0.2349,0.235,0.235,0.2345,0.2352,0.2341,0.2322,0.2312,0.2299,0.2294,0.231,0.2287,0.229,0.2293,0.233,0.2338,0.2344,0,0,0,0,0,0,0.231,0.2321,0.2323,0.233,0.2343,0.2349,0.2354,0.2355,0.2353,0.2351,0.2329,0.2325,0.2333,0.2317,0.2303,0.2323,0.23,0.2302,0.233,0.2337,0.2342,0.2349,0.2276,0,0,0,0,0,0.231,0.2316,0.233,0.2336,0.2344,0.235,0.2355,0.236,0.2361,0.236,0.2348,0.234,0.234,0.2335,0.233,0.2332,0.2344,0.2343,0.2349,0.2354,0.2358,0.2392,0.2401,0.2304,0.2304,0.2304,0,0,0.2306,0.2316,0.2317,0.2335,0.2343,0.2358,0.2353,0.2368,0.2378,0.2354,0.236,0.2357,0.2346,0.2356,0.2358,0.2343,0.2393,0.2357,0.2361,0.2363,0.2396,0.2406,0.2414,0.2306,0.2306,0.2305,0,0,0.2307,0.2315,0.2322,0.2339,0.236,0.2367,0.2375,0.2388,0.2391,0.2399,0.2392,0.2403,0.2389,0.2394,0.2392,0.2426,0.2424,0.2427,0.2454,0.2488,0.2496,0.2503,0.2551,0.2562,0.2426,0.2426,0.2426,0,0.2303,0.2313,0.2327,0.2346,0.2356,0.2374,0.2386,0.2398,0.2408,0.2415,0.2406,0.2419,0.241,0.243,0.2446,0.2438,0.2462,0.2426,0.2495,0.2502,0.2509,0.2556,0.2568,0.2429,0.2429,0.2428,0.2428,0,0.2311,0.2324,0.2333,0.2358,0.2374,0.239,0.2412,0.2428,0.2433,0.2446,0.2469,0.2465,0.2474,0.248,0.247,0.2516,0.2522,0.25,0.2476,0.2521,0.2568,0.258,0.2432,0.2431,0.2431,0.243,0,0,0.2283,0.2327,0.2329,0.2344,0.238,0.2395,0.242,0.2447,0.2469,0.2485,0.251,0.2522,0.2532,0.2532,0.2531,0.2559,0.2634,0.2553,0.2554,0.2599,0.2728,0.2701,0.271,0.2625,0.2627,0.2628,0.2749,0,0.2281,0.231,0.2331,0.2359,0.2375,0.2405,0.2428,0.2461,0.2484,0.2518,0.2537,0.2564,0.2549,0.2563,0.2591,0.2626,0.2663,0.2605,0.2679,0.2682,0.2649,0.2722,0.2666,0.2766,0.276,0.2762,0.2763,0,0.227,0.2295,0.2314,0.2362,0.2371,0.239,0.2432,0.2461,0.252,0.2541,0.2578,0.2601,0.2657,0.263,0.2718,0.2684,0.2712,0.2734,0.2739,0.2704,0.2675,0.2716,0.2787,0.2773,0.2781,0.2779,0.2778,0,0.2231,0.2279,0.229,0.2306,0.2363,0.2376,0.2408,0.2463,0.2488,0.2565,0.26,0.266,0.2703,0.2746,0.28,0.2768,0.2897,0.2855,0.286,0.2859,0.282,0.2812,0.288,0.2916,0.2916,0.2915,0.2915,0,0.2208,0.2217,0.2274,0.2283,0.23,0.2357,0.2383,0.2427,0.2495,0.2533,0.2612,0.2654,0.2735,0.2811,0.2838,0.2901,0.2933,0.2887,0.2892,0.2835,0.2827,0.2817,0.2791,0.292,0.2919,0.2918,0.2917,0,0.2147,0.2185,0.2204,0.2264,0.2277,0.2291,0.235,0.2379,0.2464,0.2517,0.2549,0.2677,0.2783,0.2863,0.2959,0.2958,0.2946,0.302,0.2959,0.2952,0.2903,0.288,0.2783,0.2686,0.3042,0.3042,0.3042,0,0.2112,0.2118,0.2169,0.2176,0.2195,0.2228,0.2248,0.2335,0.2374,0.2515,0.2542,0.2685,0.2768,0.293,0.2979,0.3057,0.2956,0.3025,0.2937,0.2916,0.2895,0.2733,0.2646,0.2922,0.2921,0.292,0.2919,0,0.2049,0.2067,0.2084,0.2104,0.212,0.2138,0.2185,0.2207,0.232,0.2391,0.2503,0.2593,0.2781,0.2861,0.2983,0.3003,0.2897,0.3009,0.3007,0.2827,0.2637,0.2541,0.284,0.2913,0.2913,0.2914,0.2914,0.2914,0.199,0.1986,0.2015,0.2016,0.2038,0.2043,0.2027,0.2106,0.2158,0.2249,0.2394,0.2514,0.2724,0.2894,0.2898,0.2932,0.284,0.2889,0.2876,0.2724,0.2577,0.2865,0.2916,0.2917,0.2918,0.2918,0.2919,0,0.1912,0.1917,0.1929,0.1927,0.1909,0.1951,0.1974,0.1954,0.1985,0.2149,0.2243,0.2465,0.2605,0.2751,0.2901,0.2851,0.2668,0.2796,0.2587,0.2513,0.2825,0.277,0.2767,0.2767,0.2767,0.2767,0.2767,0.2767,0.187,0.1846,0.1849,0.179,0.1789,0.173,0.1716,0.1722,0.1816,0.1937,0.2082,0.2231,0.2555,0.2845,0.29,0.2824,0.2604,0.2501,0.2444,0.2742,0.2749,0.2756,0.2701,0.2683,0.2683,0.2029,0.2025,0.2021]},{"header":{"parameterUnit":"m.s-1","parameterCategory":2,"la1":30.2991,"la2":30.254,"lo1":-89.0895,"lo2":-89.0444,"dy":0.0017,"dx":0.0017,"nx":28,"ny":28,"refTime":"2024-08-30T21:00:00:Z","depth":"0","parameterNumber":3,"parameterNumberName":"V-component_of_CURRENTS"},"data":[0,0,0,0,0,0,0,0,0,0,0,0,0,0,0,0,0,0,0,0,0,0,0,0,0,0,0,0,0,0,0,0,0,0,0,0,0,0,0,0,0,0,0,0,0,0,0,0,0,0,0,0,0,0,0,0,0,0,-0.0135,-0.0136,0,-0.0208,-0.0209,-0.021,-0.0246,-0.0246,-0.0246,-0.0246,-0.0327,-0.033,-0.0332,0,0,0,0,0,0,0,0,0,0,0,0,0,-0.0074,-0.0074,-0.0135,-0.0136,-0.0137,-0.0208,-0.0209,-0.021,-0.0246,-0.0246,-0.0246,-0.0246,-0.0327,-0.0329,-0.0332,0,0,0,0,0,0,0,0,0,0,0,0,0,-0.0119,-0.0075,-0.0135,-0.0163,-0.0166,-0.0208,-0.0209,-0.021,-0.0246,-0.0246,-0.0246,-0.0246,-0.0326,-0.0329,-0.0332,-0.0354,0,0,-0.0342,-0.0344,0,0,0,0,0,0,0,0,-0.0117,-0.0122,-0.0158,-0.0161,-0.0165,-0.0218,-0.0217,-0.0259,-0.0246,-0.0217,-0.0246,-0.0246,-0.0291,-0.0297,-0.0312,-0.0358,-0.0361,-0.0343,-0.0345,-0.0346,-0.0347,0,0,0,0,0,0,0,-0.0113,-0.0119,-0.0165,-0.0159,-0.0163,-0.0188,-0.0194,-0.0225,-0.0254,-0.0219,-0.0222,-0.0229,-0.0293,-0.0309,-0.0314,-0.0363,-0.0343,-0.0346,-0.0348,-0.0349,-0.0422,-0.0422,0,0,0,0,0,0,-0.0101,-0.0116,-0.0162,-0.0167,-0.0139,-0.0189,-0.0196,-0.0201,-0.0254,-0.0261,-0.0229,-0.023,-0.0303,-0.031,-0.0317,-0.0332,-0.0346,-0.0349,-0.0351,-0.0422,-0.0422,-0.0422,0,0,0,0,0,0,-0.0099,-0.0104,-0.0159,-0.0143,-0.0151,-0.0189,-0.0196,-0.0203,-0.0216,-0.0261,-0.0269,-0.0235,-0.0303,-0.0312,-0.034,-0.0336,-0.0351,-0.0354,-0.0422,-0.0422,-0.0422,-0.0372,0,0,0,0,0,0,-0.0097,-0.0103,-0.0102,-0.0142,-0.0152,-0.0177,-0.0196,-0.0204,-0.022,-0.0223,-0.0268,-0.0276,-0.0304,-0.0335,-0.0343,-0.0341,-0.0356,-0.0422,-0.0422,-0.0422,-0.0373,-0.037,-0.0367,0,0,0,0,0,-0.0095,-0.0092,-0.0102,-0.0108,-0.0149,-0.0177,-0.0184,-0.0212,-0.022,-0.0224,-0.0254,-0.0274,-0.034,-0.0338,-0.0348,-0.0346,-0.0422,-0.0422,-0.0422,-0.0375,-0.0371,-0.0367,0,0,0,0,0,0,-0.0066,-0.0097,-0.0108,-0.0116,-0.0141,-0.0183,-0.0189,-0.0208,-0.0236,-0.0236,-0.0277,-0.0287,-0.031,-0.0335,-0.0331,-0.0367,-0.0384,-0.0386,-0.0345,-0.0341,-0.0338,-0.0313,-0.0359,0,0,0,0,0,-0.0059,-0.0064,-0.0099,-0.0103,-0.0114,-0.015,-0.0164,-0.0183,-0.0213,-0.0225,-0.0257,-0.0289,-0.0318,-0.0334,-0.0365,-0.0385,-0.0404,-0.0391,-0.0387,-0.0384,-0.0371,-0.0405,-0.0404,-0.0422,-0.0422,-0.0422,0,0,-0.0049,-0.0066,-0.0069,-0.0097,-0.0119,-0.0127,-0.0158,-0.0175,-0.018,-0.023,-0.0245,-0.028,-0.0322,-0.0344,-0.0356,-0.0364,-0.0387,-0.0384,-0.0381,-0.0369,-0.0405,-0.0403,-0.0401,-0.0421,-0.0421,-0.0422,0,0,-0.0027,-0.0046,-0.0041,-0.0058,-0.0085,-0.0109,-0.011,-0.0149,-0.0163,-0.0185,-0.022,-0.025,-0.0296,-0.0323,-0.0343,-0.0341,-0.037,-0.0352,-0.0316,-0.035,-0.0348,-0.0347,-0.0357,-0.0358,-0.035,-0.035,-0.035,0,-0.0011,-0.0011,-0.0044,-0.0043,-0.005,-0.0095,-0.0089,-0.0113,-0.0155,-0.0161,-0.0181,-0.0244,-0.0284,-0.0307,-0.0307,-0.0332,-0.0348,-0.0326,-0.0344,-0.0344,-0.0344,-0.0355,-0.0356,-0.0347,-0.0348,-0.0348,-0.0348,0,0.0015,0.0014,0.0016,0.0005,-0.0009,-0.0013,-0.0047,-0.0059,-0.0083,-0.0109,-0.0137,-0.0194,-0.0228,-0.0251,-0.0279,-0.0296,-0.0306,-0.0336,-0.035,-0.0338,-0.0351,-0.0353,-0.0344,-0.0345,-0.0346,-0.0346,0,0,0.0061,0.004,0.0043,0.0049,0.0018,0.0013,0.0006,-0.0011,-0.0003,-0.0056,-0.0053,-0.0119,-0.015,-0.0175,-0.022,-0.0253,-0.027,-0.0287,-0.029,-0.029,-0.0326,-0.0319,-0.032,-0.0306,-0.0306,-0.0306,-0.0331,0,0.0096,0.0113,0.009,0.0108,0.0115,0.008,0.0083,0.0061,0.0034,0.0023,-0.0041,-0.0062,-0.0122,-0.0135,-0.0178,-0.0246,-0.0274,-0.0259,-0.0344,-0.0345,-0.0335,-0.0322,-0.0299,-0.0318,-0.0333,-0.0333,-0.0334,0,0.0137,0.0142,0.0168,0.017,0.0172,0.0178,0.0182,0.0173,0.014,0.0121,0.008,0.0033,-0.0019,-0.0075,-0.0177,-0.0164,-0.0234,-0.0291,-0.0294,-0.0304,-0.0342,-0.0336,-0.0321,-0.0459,-0.0337,-0.0337,-0.0336,0,0.0195,0.0201,0.0226,0.0226,0.0219,0.0234,0.0228,0.0208,0.0219,0.0181,0.0188,0.0109,0.0086,-0.0021,-0.0134,-0.0157,-0.024,-0.0292,-0.0349,-0.0349,-0.0352,-0.0351,-0.0473,-0.036,-0.036,-0.036,-0.036,0,0.0245,0.0267,0.0259,0.0275,0.0318,0.0289,0.0326,0.0311,0.0307,0.0331,0.0242,0.0254,0.0097,0.0032,-0.0095,-0.021,-0.0211,-0.0329,-0.0355,-0.0333,-0.033,-0.047,-0.0569,-0.0361,-0.0361,-0.0361,-0.036,0,0.0303,0.0296,0.0327,0.0335,0.0346,0.0372,0.0393,0.042,0.0403,0.0434,0.0431,0.0373,0.0285,0.0137,-0.0019,-0.0139,-0.035,-0.0309,-0.0257,-0.0276,-0.0471,-0.0567,-0.0713,-0.0801,-0.0382,-0.0382,-0.0382,0,0.0334,0.0356,0.038,0.0404,0.0412,0.0444,0.0475,0.047,0.0501,0.0514,0.0543,0.0486,0.0459,0.0244,0.0023,-0.0178,-0.0337,-0.0293,-0.0345,-0.0466,-0.0594,-0.0661,-0.0731,-0.0328,-0.0327,-0.0327,-0.0327,0,0.0392,0.0399,0.0422,0.0474,0.0513,0.0553,0.0594,0.0641,0.0644,0.0684,0.0729,0.0718,0.0524,0.0339,0.0068,-0.0085,-0.0404,-0.0292,-0.0442,-0.0575,-0.0633,-0.0734,-0.0316,-0.0323,-0.0324,-0.0324,-0.0324,-0.0324,0.0439,0.0465,0.0496,0.0546,0.0592,0.0657,0.0698,0.0756,0.0829,0.0894,0.088,0.0901,0.0633,0.0268,0.0029,-0.036,-0.0404,-0.0482,-0.059,-0.0646,-0.0735,-0.0293,-0.0318,-0.0318,-0.0319,-0.0319,-0.0319,0,0.0494,0.0518,0.0564,0.062,0.0676,0.0691,0.0776,0.0826,0.0922,0.101,0.1054,0.0989,0.0628,0.0257,-0.0265,-0.0581,-0.073,-0.0763,-0.0869,-0.0931,-0.0548,-0.0549,-0.0594,-0.0594,-0.0594,-0.0594,-0.0594,-0.0594,0.0525,0.0573,0.0589,0.0682,0.0724,0.0799,0.0849,0.0937,0.1019,0.114,0.1205,0.1226,0.1017,0.0017,-0.0672,-0.0862,-0.1139,-0.1185,-0.1341,-0.1089,-0.1071,-0.1054,-0.1077,-0.1233,-0.1234,-0.1666,-0.167,-0.1674]}],[{"header":{"parameterUnit":"m.s-1","parameterCategory":2,"la1":30.2991,"la2":30.254,"lo1":-89.0895,"lo2":-89.0444,"dy":0.0017,"dx":0.0017,"nx":28,"ny":28,"refTime":"2024-08-30T21:00:00:Z","depth":"2","parameterNumber":2,"parameterNumberName":"U-component_of_CURRENTS"},"data":[0,0,0,0,0,0,0,0,0,0,0,0,0,0,0,0,0,0,0,0,0,0,0,0,0,0,0,0,0,0,0,0,0,0,0,0,0,0,0,0,0,0,0,0,0,0,0,0,0,0,0,0,0,0,0,0,0,0,0.2352,0.2352,0,0.237,0.2371,0.2371,0.2375,0.2375,0.2375,0.2375,0.2338,0.2337,0.2336,0,0,0,0,0,0,0,0,0,0,0,0,0,0.2316,0.2316,0.2352,0.2352,0.2353,0.237,0.2371,0.2371,0.2375,0.2375,0.2375,0.2375,0.2338,0.2337,0.2336,0,0,0,0,0,0,0,0,0,0,0,0,0,0.2331,0.2316,0.2352,0.2358,0.2359,0.237,0.2371,0.2371,0.2375,0.2375,0.2375,0.2375,0.2339,0.2337,0.2336,0.2327,0,0,0.2331,0.2331,0,0,0,0,0,0,0,0,0.233,0.2332,0.2357,0.2358,0.2358,0.2372,0.2344,0.2354,0.2375,0.2368,0.2375,0.2375,0.2345,0.2343,0.2346,0.2325,0.2324,0.2331,0.233,0.233,0.2329,0,0,0,0,0,0,0,0.2329,0.2332,0.2358,0.2357,0.2358,0.2358,0.236,0.2346,0.2354,0.2368,0.2369,0.2373,0.2345,0.2347,0.2345,0.2323,0.2331,0.233,0.2329,0.2329,0.2346,0.2347,0,0,0,0,0,0,0.233,0.2331,0.2358,0.2359,0.2345,0.2359,0.2361,0.2366,0.2356,0.2355,0.2373,0.2373,0.235,0.2346,0.2343,0.2366,0.233,0.2328,0.2328,0.2345,0.2346,0.2348,0,0,0,0,0,0,0.2329,0.2332,0.2357,0.2346,0.2349,0.236,0.2365,0.2367,0.2379,0.236,0.2358,0.2385,0.2349,0.2345,0.2344,0.2363,0.2328,0.2326,0.2343,0.2345,0.2347,0.239,0,0,0,0,0,0,0.2328,0.2332,0.2339,0.2346,0.235,0.2375,0.2366,0.2367,0.2382,0.2382,0.2369,0.2366,0.2349,0.2346,0.2343,0.236,0.2325,0.2341,0.2344,0.2346,0.2386,0.2393,0.2398,0,0,0,0,0,0.2327,0.2336,0.234,0.2343,0.2359,0.2376,0.2378,0.2384,0.2382,0.2394,0.2385,0.2366,0.236,0.2346,0.2341,0.2359,0.234,0.2343,0.2346,0.2384,0.2392,0.2398,0,0,0,0,0,0,0.2322,0.2338,0.2342,0.2355,0.2371,0.2378,0.2389,0.2392,0.2395,0.2395,0.2374,0.237,0.238,0.2366,0.2351,0.2375,0.2351,0.2353,0.2381,0.2388,0.2394,0.2398,0.2324,0,0,0,0,0,0.2325,0.2339,0.2353,0.2365,0.2374,0.2384,0.2392,0.2398,0.2401,0.2403,0.2394,0.2388,0.2388,0.2385,0.2381,0.2385,0.2396,0.2398,0.2404,0.2409,0.2412,0.2447,0.2456,0.2358,0.2358,0.2358,0,0,0.2324,0.2337,0.2343,0.2366,0.2377,0.2393,0.2389,0.2408,0.2419,0.2396,0.2407,0.2406,0.2396,0.2407,0.241,0.2396,0.2448,0.2413,0.2417,0.2417,0.2451,0.246,0.2469,0.236,0.2359,0.2359,0,0,0.2329,0.2344,0.2357,0.2375,0.24,0.2407,0.2416,0.243,0.2437,0.2446,0.2441,0.2453,0.2442,0.2448,0.2446,0.2482,0.248,0.2485,0.2512,0.2546,0.2554,0.2561,0.2608,0.2619,0.2485,0.2485,0.2485,0,0.233,0.2345,0.2364,0.2385,0.2397,0.2415,0.2428,0.2443,0.2455,0.2463,0.2455,0.2471,0.2463,0.2485,0.2502,0.2495,0.2518,0.2482,0.2553,0.256,0.2567,0.2613,0.2625,0.2487,0.2487,0.2487,0.2486,0,0.234,0.236,0.2372,0.2402,0.242,0.2437,0.2458,0.2476,0.2482,0.2496,0.2521,0.2519,0.253,0.2536,0.2526,0.2574,0.2579,0.2558,0.2533,0.2579,0.2626,0.2637,0.2491,0.249,0.2489,0.2488,0,0,0.2318,0.2368,0.2371,0.2389,0.2428,0.2442,0.2469,0.2496,0.2518,0.2536,0.2563,0.2577,0.2588,0.2588,0.2588,0.2617,0.2691,0.2611,0.2611,0.2654,0.2785,0.2739,0.2746,0.2684,0.2686,0.2687,0.2805,0,0.2318,0.2351,0.2375,0.2406,0.2424,0.2454,0.2477,0.2509,0.2535,0.2571,0.259,0.2619,0.2605,0.2619,0.2647,0.2683,0.272,0.2662,0.2736,0.2739,0.2688,0.2757,0.2523,0.2603,0.2816,0.2818,0.282,0,0.231,0.2338,0.236,0.2409,0.2419,0.2437,0.248,0.2508,0.2568,0.259,0.263,0.2655,0.2712,0.2685,0.2774,0.274,0.2768,0.2791,0.2795,0.2741,0.2712,0.2588,0.2616,0.2838,0.2837,0.2835,0.2834,0,0.2271,0.2324,0.2337,0.2354,0.2411,0.2423,0.2454,0.251,0.2535,0.2615,0.2649,0.2712,0.2754,0.2799,0.2849,0.2823,0.2944,0.291,0.2898,0.2896,0.2704,0.2682,0.2972,0.2971,0.2971,0.2971,0.2971,0,0.2252,0.2263,0.2321,0.2329,0.2345,0.2403,0.2429,0.2471,0.254,0.2577,0.266,0.2701,0.2785,0.2857,0.2886,0.2938,0.2978,0.2923,0.2926,0.2715,0.2693,0.2891,0.2879,0.2975,0.2974,0.2973,0.2973,0,0.2192,0.2231,0.225,0.2309,0.2322,0.2334,0.2394,0.2422,0.2506,0.256,0.2591,0.2717,0.2818,0.2898,0.2992,0.2986,0.3036,0.3038,0.2797,0.2769,0.296,0.295,0.3048,0.3047,0.3047,0.3046,0.3046,0,0.2156,0.2164,0.2213,0.2221,0.2239,0.2272,0.229,0.2377,0.2416,0.2554,0.2578,0.2716,0.2789,0.2936,0.2954,0.3019,0.305,0.2828,0.2724,0.2976,0.2969,0.296,0.2951,0.2501,0.2496,0.2492,0.2489,0,0.2093,0.2111,0.2126,0.2146,0.2162,0.218,0.2227,0.2247,0.2359,0.2424,0.2527,0.2608,0.2756,0.2728,0.2821,0.2811,0.2799,0.2751,0.3081,0.2514,0.2468,0.2459,0.2466,0.2454,0.2457,0.246,0.2462,0.2463,0.2032,0.2027,0.2057,0.2057,0.2079,0.2085,0.2069,0.2139,0.2184,0.2251,0.2388,0.2436,0.2511,0.254,0.2494,0.2466,0.266,0.2536,0.2544,0.2558,0.247,0.2424,0.2388,0.239,0.2393,0.2395,0.2397,0,0.1952,0.1961,0.1971,0.197,0.1951,0.1994,0.2016,0.1992,0.2007,0.2104,0.2166,0.2053,0.2058,0.2129,0.2052,0.209,0.2029,0.1988,0.1879,0.1918,0.1951,0.1827,0.1577,0.1574,0.1571,0.1569,0,0,0.1912,0.1888,0.189,0.1833,0.1833,0.1782,0.1768,0.1763,0.1808,0.1804,0.181,0.1947,0.2079,0.1786,0.1774,0.1662,0.1763,0.1593,0.2259,0.217,0.2199,0.2289,0.2146,0,0,0,0,0]},{"header":{"parameterUnit":"m.s-1","parameterCategory":2,"la1":30.2991,"la2":30.254,"lo1":-89.0895,"lo2":-89.0444,"dy":0.0017,"dx":0.0017,"nx":28,"ny":28,"refTime":"2024-08-30T21:00:00:Z","depth":"2","parameterNumber":3,"parameterNumberName":"V-component_of_CURRENTS"},"data":[0,0,0,0,0,0,0,0,0,0,0,0,0,0,0,0,0,0,0,0,0,0,0,0,0,0,0,0,0,0,0,0,0,0,0,0,0,0,0,0,0,0,0,0,0,0,0,0,0,0,0,0,0,0,0,0,0,0,-0.0133,-0.0134,0,-0.0207,-0.0208,-0.0209,-0.0251,-0.0251,-0.0251,-0.0251,-0.0336,-0.0338,-0.034,0,0,0,0,0,0,0,0,0,0,0,0,0,-0.0075,-0.0075,-0.0133,-0.0134,-0.0135,-0.0207,-0.0208,-0.0209,-0.0251,-0.0251,-0.0251,-0.0251,-0.0335,-0.0338,-0.034,0,0,0,0,0,0,0,0,0,0,0,0,0,-0.012,-0.0076,-0.0133,-0.0164,-0.0167,-0.0207,-0.0208,-0.0209,-0.025,-0.0251,-0.0251,-0.0251,-0.0334,-0.0337,-0.0341,-0.0359,0,0,-0.0351,-0.0352,0,0,0,0,0,0,0,0,-0.0117,-0.0122,-0.0158,-0.0162,-0.0166,-0.0219,-0.0218,-0.026,-0.025,-0.022,-0.0251,-0.0251,-0.0297,-0.0303,-0.0318,-0.0363,-0.0367,-0.0351,-0.0353,-0.0355,-0.0355,0,0,0,0,0,0,0,-0.0114,-0.012,-0.0163,-0.0159,-0.0164,-0.0189,-0.0196,-0.0227,-0.0258,-0.0223,-0.0225,-0.0232,-0.0299,-0.0315,-0.0321,-0.0368,-0.0351,-0.0354,-0.0356,-0.0357,-0.0433,-0.0433,0,0,0,0,0,0,-0.0101,-0.0116,-0.0161,-0.0166,-0.014,-0.019,-0.0197,-0.0202,-0.0258,-0.0266,-0.0232,-0.0234,-0.0309,-0.0317,-0.0324,-0.0342,-0.0354,-0.0358,-0.036,-0.0433,-0.0433,-0.0433,0,0,0,0,0,0,-0.0099,-0.0104,-0.0158,-0.0142,-0.0151,-0.0191,-0.0196,-0.0204,-0.022,-0.0264,-0.0273,-0.024,-0.031,-0.0319,-0.0348,-0.0346,-0.0359,-0.0362,-0.0433,-0.0433,-0.0433,-0.0384,0,0,0,0,0,0,-0.0097,-0.0103,-0.0104,-0.0141,-0.0151,-0.0176,-0.0197,-0.0205,-0.0224,-0.0227,-0.0275,-0.0283,-0.031,-0.0343,-0.0352,-0.0351,-0.0365,-0.0433,-0.0433,-0.0433,-0.0385,-0.0382,-0.0379,0,0,0,0,0,-0.0095,-0.0093,-0.0103,-0.0109,-0.015,-0.0176,-0.0183,-0.0213,-0.0224,-0.0228,-0.026,-0.0281,-0.0349,-0.0346,-0.0356,-0.0356,-0.0433,-0.0433,-0.0433,-0.0387,-0.0383,-0.0379,0,0,0,0,0,0,-0.0068,-0.0098,-0.011,-0.0117,-0.0142,-0.0182,-0.019,-0.021,-0.024,-0.0243,-0.0284,-0.0294,-0.0319,-0.0345,-0.034,-0.0378,-0.0394,-0.0396,-0.0355,-0.0352,-0.0349,-0.0323,-0.0367,0,0,0,0,0,-0.0061,-0.0067,-0.01,-0.0105,-0.0115,-0.0152,-0.0167,-0.0186,-0.0217,-0.023,-0.0264,-0.0298,-0.0328,-0.0344,-0.0375,-0.0397,-0.0414,-0.0404,-0.04,-0.0398,-0.0383,-0.0418,-0.0416,-0.0433,-0.0433,-0.0433,0,0,-0.0052,-0.0069,-0.0073,-0.01,-0.0121,-0.013,-0.0161,-0.0179,-0.0185,-0.0235,-0.0253,-0.029,-0.0331,-0.0355,-0.0368,-0.0375,-0.0401,-0.0398,-0.0395,-0.0382,-0.0417,-0.0416,-0.0414,-0.0433,-0.0433,-0.0433,0,0,-0.0031,-0.005,-0.0047,-0.0064,-0.0091,-0.0114,-0.0116,-0.0154,-0.017,-0.0194,-0.023,-0.0261,-0.0309,-0.0336,-0.0356,-0.0355,-0.0384,-0.0368,-0.0332,-0.0365,-0.0364,-0.0363,-0.0373,-0.0374,-0.0366,-0.0366,-0.0366,0,-0.0017,-0.0018,-0.005,-0.005,-0.0057,-0.0101,-0.0096,-0.012,-0.0163,-0.017,-0.0191,-0.0257,-0.0297,-0.032,-0.0321,-0.0347,-0.0363,-0.0341,-0.036,-0.036,-0.0359,-0.0371,-0.0371,-0.0364,-0.0364,-0.0364,-0.0364,0,0.0007,0.0005,0.0007,-0.0006,-0.0019,-0.0023,-0.0056,-0.0069,-0.0095,-0.0121,-0.015,-0.0208,-0.0242,-0.0266,-0.0294,-0.0312,-0.0322,-0.0353,-0.0365,-0.0354,-0.0367,-0.0369,-0.036,-0.0361,-0.0362,-0.0362,0,0,0.0049,0.0029,0.0031,0.0037,0.0006,0.0002,-0.0005,-0.0022,-0.0015,-0.0069,-0.0067,-0.0134,-0.0166,-0.019,-0.0236,-0.0268,-0.0286,-0.0303,-0.0306,-0.0304,-0.0341,-0.0336,-0.0338,-0.0322,-0.0322,-0.0323,-0.0347,0,0.0081,0.0096,0.0075,0.0092,0.0099,0.0065,0.0069,0.0047,0.002,0.0008,-0.0055,-0.0077,-0.0137,-0.0151,-0.0194,-0.0261,-0.029,-0.0275,-0.0359,-0.0361,-0.0351,-0.0339,-0.0323,-0.0343,-0.0349,-0.0349,-0.035,0,0.0119,0.0124,0.0149,0.0152,0.0154,0.016,0.0165,0.0155,0.0124,0.0104,0.0064,0.0016,-0.0035,-0.009,-0.0192,-0.0179,-0.0249,-0.0306,-0.0309,-0.032,-0.0359,-0.0358,-0.0346,-0.0353,-0.0353,-0.0352,-0.0352,0,0.0173,0.0179,0.0205,0.0204,0.0199,0.0215,0.0209,0.019,0.0201,0.0163,0.017,0.0092,0.0068,-0.0038,-0.015,-0.0173,-0.0255,-0.0307,-0.0365,-0.0365,-0.0374,-0.0374,-0.0375,-0.0375,-0.0375,-0.0375,-0.0375,0,0.0219,0.0241,0.0237,0.0252,0.0294,0.0268,0.0304,0.029,0.0287,0.031,0.0223,0.0233,0.008,0.0014,-0.0111,-0.0227,-0.0227,-0.0345,-0.0371,-0.0355,-0.0353,-0.0385,-0.0386,-0.0376,-0.0376,-0.0375,-0.0375,0,0.0273,0.0267,0.0299,0.031,0.0321,0.0348,0.0369,0.0396,0.038,0.041,0.0408,0.0349,0.0261,0.0116,-0.0039,-0.0157,-0.0283,-0.0326,-0.0281,-0.0301,-0.0381,-0.0379,-0.0399,-0.0399,-0.0399,-0.0399,-0.0399,0,0.0302,0.0325,0.035,0.0375,0.0384,0.0416,0.0448,0.0444,0.0473,0.0486,0.0514,0.0457,0.0425,0.0212,-0.0005,-0.0203,-0.0247,-0.0319,-0.0371,-0.036,-0.0384,-0.0382,-0.038,-0.0362,-0.0362,-0.0362,-0.0361,0,0.036,0.0367,0.039,0.0443,0.0482,0.0522,0.0563,0.0608,0.0613,0.0648,0.0689,0.0674,0.0481,0.0289,0.0023,-0.0123,-0.0291,-0.032,-0.0323,-0.0355,-0.0327,-0.0349,-0.0349,-0.0359,-0.0359,-0.036,-0.036,-0.036,0.0407,0.0432,0.0464,0.0514,0.0559,0.0622,0.0663,0.0705,0.0771,0.0803,0.0805,0.0763,0.0571,0.0219,-0.0002,-0.0257,-0.0262,-0.0367,-0.0367,-0.0368,-0.0356,-0.0329,-0.0358,-0.0358,-0.0358,-0.0358,-0.0359,0,0.0456,0.0487,0.0533,0.0586,0.0631,0.0657,0.0739,0.0755,0.0825,0.0854,0.087,0.0687,0.0496,0.026,-0.0108,-0.0313,-0.0346,-0.0385,-0.0381,-0.0381,-0.0382,-0.0371,-0.0377,-0.0378,-0.0378,-0.0379,0,0,0.0485,0.0528,0.0542,0.0626,0.0676,0.0728,0.0776,0.0807,0.0824,0.0833,0.0815,0.0791,0.0546,0.0284,0.0016,-0.0189,-0.025,-0.0236,-0.02,-0.0166,-0.0164,-0.0349,-0.0329,0,0,0,0,0]}],[{"header":{"parameterUnit":"m.s-1","parameterCategory":2,"la1":30.2991,"la2":30.254,"lo1":-89.0895,"lo2":-89.0444,"dy":0.0017,"dx":0.0017,"nx":28,"ny":28,"refTime":"2024-08-30T21:00:00:Z","depth":"4","parameterNumber":2,"parameterNumberName":"U-component_of_CURRENTS"},"data":[0,0,0,0,0,0,0,0,0,0,0,0,0,0,0,0,0,0,0,0,0,0,0,0,0,0,0,0,0,0,0,0,0,0,0,0,0,0,0,0,0,0,0,0,0,0,0,0,0,0,0,0,0,0,0,0,0,0,0.1416,0.1416,0,0.1459,0.1459,0.146,0.1503,0.1503,0.1504,0.1505,0.1572,0.1573,0.1574,0,0,0,0,0,0,0,0,0,0,0,0,0,0.1352,0.1353,0.1416,0.1416,0.1417,0.1459,0.1459,0.146,0.1502,0.1503,0.1504,0.1505,0.1572,0.1573,0.1575,0,0,0,0,0,0,0,0,0,0,0,0,0,0.1384,0.1353,0.1415,0.1445,0.1448,0.1459,0.1459,0.146,0.1502,0.1503,0.1505,0.1506,0.1572,0.1573,0.1575,0.1561,0,0,0.158,0.158,0,0,0,0,0,0,0,0,0.1382,0.1386,0.144,0.1443,0.1447,0.1479,0.1462,0.1496,0.1502,0.1479,0.1505,0.1506,0.1544,0.1548,0.155,0.1565,0.1567,0.158,0.1581,0.1581,0.1582,0,0,0,0,0,0,0,0.1379,0.1384,0.143,0.1441,0.1445,0.145,0.1456,0.1468,0.1503,0.1481,0.1485,0.1493,0.1546,0.1548,0.1552,0.1568,0.158,0.1581,0.1582,0.1583,0.1677,0.1679,0,0,0,0,0,0,0.1379,0.1382,0.1429,0.1432,0.1419,0.1451,0.1457,0.1465,0.1503,0.151,0.1492,0.1495,0.1545,0.155,0.1554,0.1627,0.1581,0.1583,0.1584,0.1676,0.1678,0.1679,0,0,0,0,0,0,0.1377,0.1382,0.1427,0.141,0.1416,0.1451,0.146,0.1466,0.15,0.1511,0.1519,0.1525,0.1546,0.1552,0.1596,0.1627,0.1584,0.1585,0.1674,0.1676,0.1678,0.1718,0,0,0,0,0,0,0.1375,0.1381,0.1401,0.141,0.1417,0.1454,0.1459,0.1466,0.1502,0.1507,0.1541,0.1546,0.1547,0.1594,0.1598,0.1629,0.1586,0.1672,0.1675,0.1678,0.1715,0.1721,0.1727,0,0,0,0,0,0.1372,0.1389,0.1401,0.1408,0.1438,0.1455,0.1459,0.1486,0.1503,0.1521,0.1549,0.1547,0.1615,0.1596,0.1601,0.1633,0.1671,0.1674,0.1677,0.1712,0.172,0.1727,0,0,0,0,0,0,0.1369,0.1395,0.1409,0.1434,0.1453,0.1463,0.1488,0.1502,0.1536,0.1554,0.1562,0.157,0.1618,0.1622,0.1601,0.167,0.1644,0.1649,0.1669,0.1677,0.1683,0.1686,0.1588,0,0,0,0,0,0.1377,0.1403,0.142,0.1444,0.1457,0.1478,0.1494,0.1512,0.1536,0.1554,0.1577,0.1606,0.1629,0.1652,0.1669,0.1706,0.1709,0.1732,0.1738,0.1743,0.175,0.1774,0.1783,0.1691,0.1691,0.1691,0,0,0.1383,0.1402,0.1418,0.1446,0.1466,0.1487,0.1491,0.1526,0.1552,0.1555,0.161,0.1627,0.1643,0.1685,0.1708,0.1697,0.1774,0.1747,0.1752,0.1756,0.1779,0.1788,0.1796,0.1693,0.1693,0.1692,0,0,0.1396,0.1426,0.1448,0.1467,0.1504,0.1516,0.1533,0.1561,0.1589,0.1633,0.1644,0.1684,0.1722,0.1739,0.1751,0.1803,0.1801,0.1816,0.1855,0.1879,0.1886,0.1893,0.1915,0.1923,0.1824,0.1824,0.1824,0,0.1405,0.1432,0.1457,0.1479,0.1502,0.1532,0.1556,0.1583,0.1626,0.1653,0.1662,0.173,0.1746,0.1791,0.1815,0.1817,0.183,0.1823,0.1886,0.1892,0.1898,0.1919,0.1927,0.1826,0.1826,0.1826,0.1826,0,0.1422,0.1455,0.1471,0.1512,0.1538,0.1567,0.1601,0.1642,0.1681,0.1705,0.1769,0.1792,0.1833,0.1847,0.185,0.1906,0.1902,0.1884,0.1863,0.191,0.1929,0.1937,0.183,0.1829,0.1828,0.1828,0,0,0.1407,0.1472,0.148,0.1508,0.156,0.1581,0.1635,0.1684,0.1727,0.1777,0.1829,0.1878,0.1899,0.1915,0.1926,0.1954,0.2011,0.1948,0.1948,0.1963,0.207,0.1966,0.1965,0.2006,0.2008,0.2009,0.2068,0,0.1415,0.1462,0.1494,0.1546,0.1572,0.1621,0.1665,0.1719,0.1769,0.1827,0.1869,0.1922,0.1921,0.1953,0.1982,0.2002,0.2034,0.1997,0.2028,0.203,0.1925,0.1971,0.2014,0.2074,0.2075,0.2077,0.2078,0,0.1413,0.145,0.15,0.1569,0.1587,0.1626,0.1707,0.1751,0.1832,0.1875,0.1935,0.1967,0.2031,0.2017,0.2082,0.2061,0.2077,0.2086,0.2088,0.1982,0.194,0.2017,0.2092,0.2091,0.209,0.2089,0.2088,0,0.138,0.145,0.1496,0.1518,0.1599,0.1642,0.1692,0.1771,0.182,0.1913,0.1961,0.2025,0.2076,0.2103,0.2141,0.2118,0.2202,0.2164,0.2086,0.2079,0.2136,0.2128,0.221,0.2209,0.2209,0.2209,0.2209,0,0.1358,0.1398,0.1491,0.1513,0.1575,0.1638,0.1708,0.1767,0.1857,0.1909,0.1989,0.2035,0.2103,0.2157,0.2167,0.2158,0.2226,0.2102,0.2088,0.2153,0.2146,0.2142,0.2133,0.2211,0.2211,0.221,0.221,0,0.1309,0.1369,0.1426,0.1524,0.1559,0.1605,0.1715,0.1758,0.1856,0.1928,0.1965,0.2069,0.2131,0.2189,0.2242,0.2185,0.2188,0.2171,0.2259,0.2248,0.2041,0.2034,0.2066,0.2063,0.206,0.2058,0.2056,0,0.1285,0.1311,0.1423,0.1459,0.1509,0.1588,0.1636,0.1745,0.1787,0.1927,0.1948,0.206,0.2114,0.2105,0.2174,0.2191,0.217,0.2153,0.2071,0.2043,0.2027,0.2025,0.2021,0.2052,0.2051,0.2051,0.205,0,0.1238,0.1291,0.1338,0.1413,0.1474,0.1528,0.1606,0.1627,0.1741,0.185,0.1882,0.1918,0.1991,0.2026,0.2072,0.2075,0.2144,0.2124,0.2128,0.2051,0.2026,0.2013,0.2013,0.2041,0.2042,0.2043,0.2043,0,0.1207,0.1228,0.1298,0.1351,0.1421,0.1443,0.1493,0.1538,0.1593,0.1736,0.1744,0.1861,0.1963,0.197,0.2007,0.2011,0.1967,0.1884,0.1899,0.1911,0.1834,0.1779,0.1713,0,0,0,0,0,0.1167,0.1181,0.1228,0.1275,0.1338,0.1379,0.1461,0.151,0.1618,0.1595,0.1662,0.1717,0.1766,0.1833,0.1806,0.1954,0.1987,0.1914,0.1901,0.1989,0.2,0.1926,0,0,0,0,0,0,0.114,0.1185,0.12,0.1199,0.1215,0.127,0.1317,0.1389,0.1379,0.1495,0.1531,0.162,0.1699,0.1767,0.1776,0.1797,0.1754,0.1993,0.1989,0.1983,0.1993,0.2002,0.1929,0,0,0,0,0]},{"header":{"parameterUnit":"m.s-1","parameterCategory":2,"la1":30.2991,"la2":30.254,"lo1":-89.0895,"lo2":-89.0444,"dy":0.0017,"dx":0.0017,"nx":28,"ny":28,"refTime":"2024-08-30T21:00:00:Z","depth":"4","parameterNumber":3,"parameterNumberName":"V-component_of_CURRENTS"},"data":[0,0,0,0,0,0,0,0,0,0,0,0,0,0,0,0,0,0,0,0,0,0,0,0,0,0,0,0,0,0,0,0,0,0,0,0,0,0,0,0,0,0,0,0,0,0,0,0,0,0,0,0,0,0,0,0,0,0,0.0023,0.0023,0,-0.0014,-0.0014,-0.0015,-0.0043,-0.0043,-0.0043,-0.0044,-0.0103,-0.0105,-0.0106,0,0,0,0,0,0,0,0,0,0,0,0,0,0.0051,0.0051,0.0023,0.0023,0.0022,-0.0014,-0.0014,-0.0015,-0.0043,-0.0043,-0.0043,-0.0044,-0.0103,-0.0104,-0.0106,0,0,0,0,0,0,0,0,0,0,0,0,0,0.003,0.0051,0.0023,0.0004,0.0002,-0.0014,-0.0014,-0.0015,-0.0043,-0.0043,-0.0043,-0.0044,-0.0102,-0.0104,-0.0106,-0.011,0,0,-0.0112,-0.0113,0,0,0,0,0,0,0,0,0.0031,0.0029,0.0007,0.0005,0.0003,-0.0024,-0.0026,-0.0048,-0.0042,-0.0026,-0.0044,-0.0044,-0.0079,-0.0083,-0.0088,-0.0113,-0.0116,-0.0113,-0.0114,-0.0115,-0.0115,0,0,0,0,0,0,0,0.0032,0.003,0.0009,0.0007,0.0004,-0.0009,-0.0013,-0.0031,-0.005,-0.0027,-0.0029,-0.0034,-0.008,-0.0086,-0.009,-0.0117,-0.0113,-0.0114,-0.0116,-0.0116,-0.0149,-0.0148,0,0,0,0,0,0,0.0038,0.0031,0.001,0.0008,0.0016,-0.0009,-0.0013,-0.0015,-0.0049,-0.0055,-0.0033,-0.0035,-0.0083,-0.0088,-0.0092,-0.0096,-0.0115,-0.0117,-0.0118,-0.0149,-0.0149,-0.0148,0,0,0,0,0,0,0.0039,0.0037,0.0011,0.0018,0.0014,-0.0009,-0.0011,-0.0016,-0.0023,-0.0054,-0.0059,-0.0036,-0.0083,-0.0089,-0.0105,-0.0099,-0.0117,-0.0119,-0.0149,-0.0149,-0.0148,-0.0106,0,0,0,0,0,0,0.004,0.0037,0.004,0.0019,0.0014,0.0005,-0.0011,-0.0016,-0.0025,-0.0027,-0.0058,-0.0064,-0.0084,-0.0101,-0.0106,-0.0102,-0.0121,-0.015,-0.0149,-0.0149,-0.0108,-0.0104,-0.0101,0,0,0,0,0,0.0041,0.0047,0.004,0.0037,0.0018,0.0006,0.0002,-0.0016,-0.0025,-0.0025,-0.0044,-0.0063,-0.0101,-0.0103,-0.0109,-0.0105,-0.015,-0.0149,-0.0149,-0.0109,-0.0104,-0.0101,0,0,0,0,0,0,0.0061,0.0044,0.0036,0.0036,0.0023,0.0001,-0.0,-0.0013,-0.0028,-0.003,-0.006,-0.0067,-0.0077,-0.0096,-0.0097,-0.0112,-0.0128,-0.0129,-0.0096,-0.0092,-0.0089,-0.0083,-0.0123,0,0,0,0,0,0.0067,0.0066,0.0047,0.0048,0.0043,0.0022,0.0015,0.0004,-0.0014,-0.0021,-0.0043,-0.0063,-0.0078,-0.0089,-0.0106,-0.0115,-0.0135,-0.0116,-0.0112,-0.0109,-0.0108,-0.0126,-0.0124,-0.0146,-0.0146,-0.0146,0,0,0.0074,0.0066,0.0065,0.0052,0.0041,0.0038,0.0017,0.001,0.0008,-0.0025,-0.0033,-0.0052,-0.0078,-0.0086,-0.0093,-0.0102,-0.0114,-0.0108,-0.0105,-0.0106,-0.0125,-0.0123,-0.0121,-0.0145,-0.0145,-0.0145,0,0,0.0089,0.0083,0.0086,0.0079,0.0065,0.0052,0.0052,0.0031,0.0023,0.0012,-0.0009,-0.0023,-0.0051,-0.0064,-0.0075,-0.0063,-0.0094,-0.007,-0.0049,-0.0066,-0.0064,-0.0063,-0.0088,-0.0089,-0.0069,-0.0069,-0.0069,0,0.0099,0.01,0.0085,0.0087,0.0084,0.0061,0.0064,0.0054,0.0032,0.0028,0.0014,-0.0019,-0.004,-0.0046,-0.0043,-0.0054,-0.0074,-0.0062,-0.0061,-0.006,-0.006,-0.0086,-0.0088,-0.0067,-0.0067,-0.0067,-0.0067,0,0.0113,0.0115,0.0118,0.0113,0.011,0.0109,0.0094,0.009,0.0075,0.0061,0.0049,0.0021,0.0002,-0.0006,-0.0022,-0.0026,-0.0044,-0.0053,-0.0071,-0.0055,-0.0083,-0.0086,-0.0064,-0.0064,-0.0065,-0.0066,0,0,0.0128,0.0127,0.0129,0.0134,0.0123,0.0123,0.0125,0.0118,0.0122,0.0096,0.0095,0.0069,0.0051,0.0038,0.0017,0.0001,-0.0013,-0.0023,-0.0025,-0.0046,-0.0058,-0.0074,-0.0079,-0.0023,-0.0023,-0.0023,-0.008,0,0.0141,0.0153,0.0149,0.0163,0.0167,0.0157,0.0164,0.0157,0.0143,0.0137,0.0108,0.0098,0.0069,0.0062,0.0042,0.0003,-0.0018,0.0003,-0.0073,-0.0075,-0.0089,-0.0082,-0.0024,-0.0083,-0.0083,-0.0084,-0.0084,0,0.0152,0.016,0.0177,0.0191,0.0193,0.02,0.0209,0.0211,0.0198,0.0188,0.0168,0.0144,0.0118,0.0093,0.0028,0.0042,-0.0005,-0.0039,-0.0042,-0.0074,-0.0095,-0.0102,-0.009,-0.0089,-0.0089,-0.0089,-0.0088,0,0.0166,0.0181,0.0197,0.02,0.0212,0.0223,0.0227,0.0225,0.0238,0.0219,0.0222,0.0181,0.0166,0.0104,0.0029,0.0029,-0.0048,-0.0056,-0.0116,-0.0119,-0.0107,-0.0108,-0.0103,-0.0103,-0.0103,-0.0102,-0.0102,0,0.0177,0.0191,0.0207,0.0215,0.0244,0.0243,0.0268,0.0268,0.0277,0.0297,0.0249,0.0251,0.0169,0.0115,0.004,-0.005,-0.0042,-0.0114,-0.0132,-0.0088,-0.0086,-0.011,-0.011,-0.0105,-0.0104,-0.0104,-0.0103,0,0.0185,0.0193,0.0215,0.0237,0.0249,0.0268,0.0303,0.0323,0.0322,0.0348,0.0347,0.0307,0.0235,0.0141,0.004,-0.0029,-0.0117,-0.0153,-0.0104,-0.0119,-0.018,-0.0177,-0.022,-0.0221,-0.0222,-0.0223,-0.0223,0,0.0188,0.02,0.0235,0.0254,0.0265,0.0295,0.0323,0.0343,0.0367,0.0383,0.0398,0.0345,0.0302,0.0149,0.0038,-0.0114,-0.0137,-0.0191,-0.0181,-0.0178,-0.0191,-0.0187,-0.0183,-0.0225,-0.0225,-0.0225,-0.0225,0,0.0193,0.0207,0.0228,0.0269,0.0302,0.0342,0.038,0.0407,0.0436,0.0444,0.0448,0.0373,0.0288,0.0161,0.0035,-0.0074,-0.016,-0.02,-0.0199,-0.019,-0.0184,-0.0195,-0.0191,-0.0228,-0.0228,-0.0227,-0.0227,0,0.0199,0.0214,0.0243,0.028,0.0328,0.0374,0.0394,0.043,0.046,0.0486,0.0486,0.0398,0.0353,0.0181,0.0068,-0.0046,-0.0072,-0.0112,-0.0116,-0.0114,-0.0071,-0.0046,-0.0063,0,0,0,0,0,0.0202,0.0216,0.0251,0.0291,0.0342,0.0367,0.0429,0.0448,0.0484,0.0499,0.0499,0.0424,0.0269,0.0198,0.0084,0.0032,-0.0111,-0.0108,-0.0163,-0.0244,-0.0241,-0.021,0,0,0,0,0,0,0.0199,0.0228,0.0245,0.0297,0.0325,0.0381,0.0422,0.0448,0.0455,0.0479,0.0401,0.038,0.0226,0.0334,0.0077,0.0042,-0.0012,-0.0176,-0.0179,-0.0246,-0.0243,-0.024,-0.0207,0,0,0,0,0]}]]